START_TIME,STEP,MOV.,H8,t_acc.,H43,t_acc.,M25,t_acc.,H9,t_acc.
1979-07-18 00:00:29.460 ,0,0,0.,12.0,0.,12.0,0.,12.0,0.,12.0
1979-07-18 00:00:41.460 ,0,0,0.,12.0,0.,12.0,0.,12.0,0.,12.0
1979-07-18 00:00:53.460 ,1,0,0.,12.0,0.,12.0,0.,12.0,0.,12.0
1979-07-18 00:01:05.460 ,1,0,0.,12.0,0.,12.0,0.,12.0,0.,12.0
1979-07-18 00:01:17.460 ,1,0,0.,12.0,0.,12.0,0.,12.0,0.,12.0
1979-07-18 00:01:29.460 ,1,0,0.,12.0,0.,12.0,0.,12.0,0.,12.0
1979-07-18 00:01:41.460 ,2,0,0.,12.0,0.,12.0,0.,12.0,0.,12.0
1979-07-18 00:01:53.460 ,2,0,0.,12.0,0.,12.0,0.,12.0,0.,12.0
1979-07-18 00:02:05.460 ,2,0,0.,12.0,0.,12.0,0.,12.0,0.,12.0
1979-07-18 00:02:17.460 ,2,0,0.,12.0,0.,12.0,0.,12.0,0.,12.0
1979-07-18 00:02:29.460 ,3,0,0.,12.0,0.,12.0,0.,12.0,0.,12.0
1979-07-18 00:02:41.460 ,3,0,0.,12.0,0.,12.0,0.,12.0,0.,12.0
1979-07-18 00:02:53.460 ,3,0,0.,12.0,0.,12.0,0.,12.0,0.,12.0
1979-07-18 00:03:05.460 ,3,0,0.,12.0,0.,12.0,0.,12.0,0.,12.0
1979-07-18 00:03:17.460 ,4,0,0.,12.0,0.,12.0,0.,12.0,0.,12.0
1979-07-18 00:03:29.460 ,4,0,0.,12.0,0.,12.0,0.,12.0,0.,12.0
1979-07-18 00:03:41.460 ,4,0,0.,12.0,0.,12.0,0.,12.0,0.,12.0
1979-07-18 00:03:53.460 ,4,0,0.,12.0,0.,12.0,0.,12.0,0.,12.0
1979-07-18 00:04:05.460 ,5,0,0.,12.0,0.,12.0,0.,12.0,0.,12.0
1979-07-18 00:04:17.460 ,5,0,0.,12.0,0.,12.0,0.,12.0,0.,12.0
1979-07-18 00:04:29.460 ,5,0,0.,12.0,0.,12.0,0.,12.0,0.,12.0
1979-07-18 00:04:41.460 ,5,0,0.,12.0,0.,12.0,0.,12.0,0.,12.0
1979-07-18 00:04:53.460 ,6,0,0.,12.0,0.,12.0,0.,12.0,0.,12.0
1979-07-18 00:05:05.460 ,6,0,0.,12.0,0.,12.0,0.,12.0,0.,12.0
1979-07-18 00:05:17.460 ,6,0,0.,12.0,0.,12.0,0.,12.0,0.,12.0
1979-07-18 00:05:29.460 ,6,0,0.,12.0,0.,12.0,0.,12.0,0.,12.0
1979-07-18 00:05:41.460 ,7,0,0.,12.0,0.,12.0,0.,12.0,0.,12.0
1979-07-18 00:05:53.460 ,7,0,0.,12.0,0.,12.0,0.,12.0,0.,12.0
1979-07-18 00:06:05.460 ,7,0,0.,12.0,0.,12.0,0.,12.0,0.,12.0
1979-07-18 00:06:17.460 ,7,0,0.,12.0,0.,12.0,0.,12.0,0.,12.0
1979-07-18 00:06:29.460 ,7,0,0.,12.0,0.,12.0,0.,12.0,0.,12.0
1979-07-18 00:06:41.460 ,7,0,0.,12.0,0.,12.0,0.,12.0,0.,12.0
1979-07-18 00:06:53.460 ,7,0,0.,12.0,0.,12.0,0.,12.0,0.,12.0
1979-07-18 00:07:05.460 ,7,0,0.,12.0,0.,12.0,0.,12.0,0.,12.0
1979-07-18 00:07:17.460 ,6,0,0.,12.0,0.,12.0,0.,12.0,0.,12.0
1979-07-18 00:07:29.460 ,6,0,0.,12.0,0.,12.0,0.,12.0,0.,12.0
1979-07-18 00:07:41.460 ,6,0,0.,12.0,0.,12.0,0.,12.0,0.,12.0
1979-07-18 00:07:53.460 ,6,0,0.,12.0,0.,12.0,0.,12.0,0.,12.0
1979-07-18 00:08:05.460 ,5,0,0.,12.0,0.,12.0,0.,12.0,0.,12.0
1979-07-18 00:08:17.460 ,5,0,0.,12.0,0.,12.0,0.,12.0,0.,12.0
1979-07-18 00:08:29.460 ,5,0,0.,12.0,0.,12.0,0.,12.0,0.,12.0
1979-07-18 00:08:41.460 ,5,0,0.,12.0,0.,12.0,0.,12.0,0.,12.0
1979-07-18 00:08:53.460 ,4,0,0.,12.0,0.,12.0,0.,12.0,0.,12.0
1979-07-18 00:09:05.460 ,4,0,0.,12.0,0.,12.0,0.,12.0,0.,12.0
1979-07-18 00:09:17.460 ,4,0,0.,12.0,0.,12.0,0.,12.0,0.,12.0
1979-07-18 00:09:29.460 ,4,0,0.,12.0,0.,12.0,0.,12.0,0.,12.0
1979-07-18 00:09:41.460 ,3,0,0.,12.0,0.,12.0,0.,12.0,0.,12.0
1979-07-18 00:09:53.460 ,3,0,0.,12.0,0.,12.0,0.,12.0,0.,12.0
1979-07-18 00:10:05.460 ,3,0,0.,12.0,0.,12.0,0.,12.0,0.,12.0
1979-07-18 00:10:17.460 ,3,0,0.,12.0,0.,12.0,0.,12.0,0.,12.0
1979-07-18 00:10:29.460 ,2,0,0.,12.0,0.,12.0,0.,12.0,0.,12.0
1979-07-18 00:10:41.460 ,2,0,0.,12.0,0.,12.0,0.,12.0,0.,12.0
1979-07-18 00:10:53.460 ,2,0,0.,12.0,0.,12.0,0.,12.0,0.,12.0
1979-07-18 00:11:05.460 ,2,0,0.,12.0,0.,12.0,0.,12.0,0.,12.0
1979-07-18 00:11:17.460 ,1,0,1.,12.0,0.,12.0,0.,12.0,0.,12.0
1979-07-18 00:11:29.460 ,1,0,0.,12.0,0.,12.0,0.,12.0,0.,12.0
1979-07-18 00:11:41.460 ,1,0,0.,12.0,0.,12.0,0.,12.0,0.,12.0
1979-07-18 00:11:53.460 ,1,0,0.,12.0,0.,12.0,0.,12.0,0.,12.0
1979-07-18 00:12:05.460 ,0,0,0.,12.0,0.,12.0,0.,12.0,0.,12.0
1979-07-18 00:12:17.460 ,0,0,0.,12.0,0.,12.0,0.,12.0,0.,12.0
1979-07-18 00:12:29.460 ,0,0,0.,12.0,0.,12.0,0.,12.0,0.,12.0
1979-07-18 00:12:41.460 ,0,0,0.,12.0,0.,12.0,0.,12.0,0.,12.0
1979-07-18 00:12:53.460 ,0,0,0.,12.0,0.,12.0,0.,12.0,0.,12.0
1979-07-18 00:13:05.460 ,0,0,0.,12.0,0.,12.0,0.,12.0,0.,12.0
1979-07-18 00:13:17.460 ,0,0,0.,12.0,0.,12.0,0.,12.0,0.,12.0
1979-07-18 00:13:29.460 ,0,0,0.,12.0,0.,12.0,0.,12.0,0.,12.0
1979-07-18 00:13:41.460 ,1,0,0.,12.0,0.,12.0,0.,12.0,0.,12.0
1979-07-18 00:13:53.460 ,1,0,0.,12.0,0.,12.0,0.,12.0,0.,12.0
1979-07-18 00:14:05.460 ,1,0,0.,12.0,0.,12.0,0.,12.0,0.,12.0
1979-07-18 00:14:17.460 ,1,0,0.,12.0,0.,12.0,0.,12.0,0.,12.0
1979-07-18 00:14:29.460 ,2,0,0.,12.0,0.,12.0,0.,12.0,0.,12.0
1979-07-18 00:14:41.460 ,2,0,0.,12.0,0.,12.0,0.,12.0,0.,12.0
1979-07-18 00:14:53.460 ,2,0,0.,12.0,0.,12.0,0.,12.0,0.,12.0
1979-07-18 00:15:05.460 ,2,0,0.,12.0,0.,12.0,0.,12.0,0.,12.0
1979-07-18 00:15:17.460 ,3,0,0.,12.0,0.,12.0,0.,12.0,0.,12.0
1979-07-18 00:15:29.460 ,3,0,0.,12.0,0.,12.0,0.,12.0,0.,12.0
1979-07-18 00:15:41.460 ,3,0,0.,12.0,0.,12.0,0.,12.0,0.,12.0
1979-07-18 00:15:53.460 ,3,0,0.,12.0,0.,12.0,0.,12.0,0.,12.0
1979-07-18 00:16:05.460 ,4,0,0.,12.0,0.,12.0,0.,12.0,0.,12.0
1979-07-18 00:16:17.460 ,4,0,0.,12.0,0.,12.0,0.,12.0,0.,12.0
1979-07-18 00:16:29.460 ,4,0,0.,12.0,0.,12.0,0.,12.0,0.,12.0
1979-07-18 00:16:41.460 ,4,0,0.,12.0,0.,12.0,0.,12.0,0.,12.0
1979-07-18 00:16:53.460 ,5,0,0.,12.0,0.,12.0,0.,12.0,0.,12.0
1979-07-18 00:17:05.460 ,5,0,0.,12.0,0.,12.0,0.,12.0,0.,12.0
1979-07-18 00:17:17.460 ,0,0,0.,12.0,0.,12.0,0.,12.0,0.,12.0
1979-07-18 00:17:29.460 ,0,0,0.,12.0,0.,12.0,0.,12.0,0.,12.0
1979-07-18 00:17:44.460 ,0,0,0.,12.0,0.,12.0,0.,12.0,0.,12.0
1979-07-18 00:17:56.460 ,0,0,0.,12.0,0.,12.0,0.,12.0,0.,12.0
1979-07-18 00:18:05.460 ,0,0,0.,12.0,0.,12.0,0.,12.0,0.,12.0
1979-07-18 00:18:17.460 ,0,0,0.,12.0,0.,12.0,0.,12.0,0.,12.0
1979-07-18 00:18:29.460 ,7,0,0.,12.0,0.,12.0,0.,12.0,0.,12.0
1979-07-18 00:18:41.460 ,7,0,0.,12.0,0.,12.0,0.,12.0,0.,12.0
1979-07-18 00:18:53.460 ,7,0,0.,12.0,0.,12.0,0.,12.0,0.,12.0
1979-07-18 00:19:05.460 ,7,0,0.,12.0,0.,12.0,0.,12.0,0.,12.0
1979-07-18 00:19:17.460 ,3,1,0.,12.0,0.,12.0,0.,12.0,0.,12.0
1979-07-18 00:19:29.460 ,3,1,0.,12.0,0.,12.0,0.,12.0,0.,12.0
1979-07-18 00:19:41.460 ,0,1,0.,12.0,0.,12.0,0.,12.0,0.,12.0
1979-07-18 00:19:53.460 ,0,1,0.,12.0,0.,12.0,0.,12.0,0.,12.0
1979-07-18 00:20:05.460 ,4,1,0.,12.0,0.,12.0,0.,12.0,0.,12.0
1979-07-18 00:20:17.460 ,4,1,0.,12.0,0.,12.0,0.,12.0,0.,12.0
1979-07-18 00:20:29.460 ,7,1,0.,12.0,0.,12.0,0.,12.0,0.,12.0
1979-07-18 00:20:41.460 ,7,1,0.,12.0,0.,12.0,0.,12.0,0.,12.0
1979-07-18 00:20:53.460 ,3,1,0.,12.0,0.,12.0,0.,12.0,0.,12.0
1979-07-18 00:21:05.460 ,3,1,0.,12.0,0.,12.0,0.,12.0,0.,12.0
1979-07-18 00:21:17.460 ,0,1,0.,12.0,0.,12.0,0.,12.0,0.,12.0
1979-07-18 00:21:29.460 ,0,1,0.,12.0,0.,12.0,0.,12.0,0.,12.0
1979-07-18 00:21:41.460 ,4,1,0.,12.0,0.,12.0,0.,12.0,0.,12.0
1979-07-18 00:21:53.460 ,4,1,0.,12.0,0.,12.0,0.,12.0,0.,12.0
1979-07-18 00:22:05.460 ,7,1,0.,12.0,0.,12.0,0.,12.0,0.,12.0
1979-07-18 00:22:17.460 ,7,1,0.,12.0,0.,12.0,0.,12.0,0.,12.0
1979-07-18 00:22:29.460 ,0,0,,0,,0,,0,,0
1979-07-18 00:22:41.460 ,0,0,,0,,0,,0,,0
1979-07-18 00:22:53.460 ,0,0,,0,,0,,0,,0
1979-07-18 00:23:05.460 ,0,0,,0,,0,,0,,0
1979-07-18 00:22:53.460 ,0,1,0.,12.0,0.,12.0,0.,12.0,0.,12.0
1979-07-18 00:23:05.460 ,0,1,0.,12.0,0.,12.0,0.,12.0,0.,12.0
1979-07-18 00:23:17.460 ,4,1,0.,12.0,0.,12.0,0.,12.0,0.,12.0
1979-07-18 00:23:29.460 ,4,1,0.,12.0,0.,12.0,0.,12.0,0.,12.0
1979-07-18 00:23:41.460 ,7,1,0.,12.0,0.,12.0,0.,12.0,0.,12.0
1979-07-18 00:23:53.460 ,7,1,0.,12.0,0.,12.0,0.,12.0,0.,12.0
1979-07-18 00:24:05.460 ,3,1,0.,12.0,0.,12.0,0.,12.0,0.,12.0
1979-07-18 00:24:17.460 ,3,1,0.,12.0,0.,12.0,0.,12.0,0.,12.0
1979-07-18 00:24:29.460 ,0,1,0.,12.0,0.,12.0,0.,12.0,0.,12.0
1979-07-18 00:24:41.460 ,0,1,0.,12.0,0.,12.0,0.,12.0,0.,12.0
1979-07-18 00:24:53.460 ,4,1,0.,12.0,0.,12.0,0.,12.0,0.,12.0
1979-07-18 00:25:05.460 ,4,1,0.,12.0,0.,12.0,0.,12.0,0.,12.0
1979-07-18 00:25:17.460 ,7,1,0.,12.0,0.,12.0,0.,12.0,0.,12.0
1979-07-18 00:25:29.460 ,7,1,0.,12.0,0.,12.0,0.,12.0,0.,12.0
1979-07-18 00:25:41.460 ,3,1,0.,12.0,0.,12.0,0.,12.0,0.,12.0
1979-07-18 00:25:53.460 ,3,1,0.,12.0,0.,12.0,0.,12.0,0.,12.0
1979-07-18 00:26:05.460 ,0,1,0.,12.0,0.,12.0,0.,12.0,0.,12.0
1979-07-18 00:26:17.460 ,0,1,0.,12.0,0.,12.0,0.,12.0,0.,12.0
1979-07-18 00:26:29.460 ,4,1,0.,12.0,0.,12.0,0.,12.0,0.,12.0
1979-07-18 00:26:41.460 ,4,1,0.,12.0,0.,12.0,0.,12.0,0.,12.0
1979-07-18 00:26:53.460 ,7,1,0.,12.0,0.,12.0,0.,12.0,0.,12.0
1979-07-18 00:27:05.460 ,7,1,0.,12.0,0.,12.0,0.,12.0,0.,12.0
1979-07-18 00:27:17.460 ,3,1,0.,12.0,0.,12.0,0.,12.0,0.,12.0
1979-07-18 00:27:29.460 ,3,1,0.,12.0,0.,12.0,0.,12.0,0.,12.0
1979-07-18 00:27:41.460 ,0,1,0.,12.0,0.,12.0,0.,12.0,0.,12.0
1979-07-18 00:27:53.460 ,0,1,0.,12.0,0.,12.0,0.,12.0,0.,12.0
1979-07-18 00:28:05.460 ,4,1,0.,12.0,0.,12.0,0.,12.0,0.,12.0
1979-07-18 00:28:17.460 ,4,1,0.,12.0,0.,12.0,0.,12.0,0.,12.0
1979-07-18 00:28:29.460 ,7,1,0.,12.0,0.,12.0,0.,12.0,0.,12.0
1979-07-18 00:28:41.460 ,7,1,0.,12.0,0.,12.0,0.,12.0,0.,12.0
1979-07-18 00:28:53.460 ,3,1,0.,12.0,0.,12.0,0.,12.0,0.,12.0
1979-07-18 00:29:05.460 ,3,1,0.,12.0,0.,12.0,0.,12.0,0.,12.0
1979-07-18 00:29:17.460 ,0,1,0.,12.0,0.,12.0,0.,12.0,0.,12.0
1979-07-18 00:29:29.460 ,0,1,0.,12.0,0.,12.0,0.,12.0,0.,12.0
1979-07-18 00:29:41.460 ,0,0,0.,12.0,0.,12.0,0.,12.0,0.,12.0
1979-07-18 00:29:53.460 ,0,0,0.,12.0,0.,12.0,0.,12.0,0.,12.0
1979-07-18 00:30:05.460 ,0,0,0.,12.0,0.,12.0,0.,12.0,0.,12.0
1979-07-18 00:30:17.460 ,0,0,0.,12.0,0.,12.0,0.,12.0,0.,12.0
1979-07-18 00:30:29.460 ,5,0,0.,12.0,0.,12.0,0.,12.0,0.,12.0
1979-07-18 00:30:41.460 ,5,0,0.,12.0,0.,12.0,0.,12.0,0.,12.0
1979-07-18 00:30:53.460 ,5,0,0.,12.0,0.,12.0,0.,12.0,0.,12.0
1979-07-18 00:31:05.460 ,5,0,0.,12.0,0.,12.0,0.,12.0,0.,12.0
1979-07-18 00:31:17.460 ,4,0,0.,12.0,0.,12.0,0.,12.0,0.,12.0
1979-07-18 00:31:29.460 ,4,0,0.,12.0,0.,12.0,0.,12.0,0.,12.0
1979-07-18 00:31:41.460 ,4,0,0.,12.0,0.,12.0,0.,12.0,0.,12.0
1979-07-18 00:31:53.460 ,4,0,0.,12.0,0.,12.0,0.,12.0,0.,12.0
1979-07-18 00:32:05.460 ,3,0,0.,12.0,0.,12.0,0.,12.0,0.,12.0
1979-07-18 00:32:17.460 ,3,0,0.,12.0,0.,12.0,0.,12.0,0.,12.0
1979-07-18 00:32:29.460 ,3,0,0.,12.0,0.,12.0,0.,12.0,0.,12.0
1979-07-18 00:32:41.460 ,3,0,0.,12.0,0.,12.0,0.,12.0,0.,12.0
1979-07-18 00:32:53.460 ,2,0,0.,12.0,0.,12.0,0.,12.0,0.,12.0
1979-07-18 00:33:05.460 ,2,0,0.,12.0,0.,12.0,0.,12.0,0.,12.0
1979-07-18 00:33:17.460 ,2,0,0.,12.0,0.,12.0,0.,12.0,0.,12.0
1979-07-18 00:33:29.460 ,2,0,0.,12.0,0.,12.0,0.,12.0,0.,12.0
1979-07-18 00:33:41.460 ,1,0,0.,12.0,0.,12.0,0.,12.0,0.,12.0
1979-07-18 00:33:53.460 ,1,0,0.,12.0,0.,12.0,0.,12.0,0.,12.0
1979-07-18 00:34:05.460 ,1,0,0.,12.0,0.,12.0,0.,12.0,0.,12.0
1979-07-18 00:34:17.460 ,1,0,0.,12.0,0.,12.0,0.,12.0,0.,12.0
1979-07-18 00:34:29.460 ,0,0,0.,12.0,0.,12.0,0.,12.0,0.,12.0
1979-07-18 00:34:41.460 ,0,0,0.,12.0,0.,12.0,0.,12.0,0.,12.0
1979-07-18 00:34:53.460 ,0,0,0.,12.0,0.,12.0,0.,12.0,0.,12.0
1979-07-18 00:35:05.460 ,0,0,0.,12.0,0.,12.0,0.,12.0,0.,12.0
1979-07-18 00:35:17.460 ,0,0,0.,12.0,0.,12.0,0.,12.0,0.,12.0
1979-07-18 00:35:29.460 ,0,0,0.,12.0,0.,12.0,0.,12.0,0.,12.0
1979-07-18 00:35:41.460 ,0,0,0.,12.0,0.,12.0,0.,12.0,0.,12.0
1979-07-18 00:35:53.460 ,0,0,0.,12.0,0.,12.0,0.,12.0,0.,12.0
1979-07-18 00:36:05.460 ,1,0,0.,12.0,0.,12.0,0.,12.0,0.,12.0
1979-07-18 00:36:17.460 ,1,0,0.,12.0,0.,12.0,0.,12.0,0.,12.0
1979-07-18 00:36:29.460 ,1,0,0.,12.0,0.,12.0,0.,12.0,0.,12.0
1979-07-18 00:36:41.460 ,1,0,0.,12.0,0.,12.0,0.,12.0,0.,12.0
1979-07-18 00:36:53.460 ,2,0,0.,12.0,0.,12.0,0.,12.0,0.,12.0
1979-07-18 00:37:05.460 ,2,0,0.,12.0,0.,12.0,0.,12.0,0.,12.0
1979-07-18 00:37:17.460 ,2,0,0.,12.0,0.,12.0,0.,12.0,0.,12.0
1979-07-18 00:37:29.460 ,2,0,0.,12.0,0.,12.0,0.,12.0,0.,12.0
1979-07-18 00:37:41.460 ,3,0,0.,12.0,0.,12.0,0.,12.0,0.,12.0
1979-07-18 00:37:53.460 ,3,0,0.,12.0,0.,12.0,0.,12.0,0.,12.0
1979-07-18 00:38:05.460 ,3,0,0.,12.0,0.,12.0,0.,12.0,0.,12.0
1979-07-18 00:38:17.460 ,3,0,0.,12.0,0.,12.0,0.,12.0,0.,12.0
1979-07-18 00:38:29.460 ,4,0,0.,12.0,0.,12.0,0.,12.0,0.,12.0
1979-07-18 00:38:41.460 ,4,0,0.,12.0,0.,12.0,0.,12.0,0.,12.0
1979-07-18 00:38:53.460 ,4,0,0.,12.0,0.,12.0,0.,12.0,0.,12.0
1979-07-18 00:39:05.460 ,4,0,0.,12.0,0.,12.0,0.,12.0,0.,12.0
1979-07-18 00:39:17.460 ,5,0,0.,12.0,0.,12.0,0.,12.0,0.,12.0
1979-07-18 00:39:29.460 ,5,0,0.,12.0,0.,12.0,0.,12.0,0.,12.0
1979-07-18 00:39:41.460 ,5,0,0.,12.0,0.,12.0,0.,12.0,0.,12.0
1979-07-18 00:39:53.460 ,5,0,0.,12.0,0.,12.0,0.,12.0,0.,12.0
1979-07-18 00:40:05.460 ,6,0,0.,12.0,0.,12.0,0.,12.0,0.,12.0
1979-07-18 00:40:17.460 ,6,0,0.,12.0,0.,12.0,0.,12.0,0.,12.0
1979-07-18 00:40:29.460 ,6,0,0.,12.0,0.,12.0,0.,12.0,0.,12.0
1979-07-18 00:40:41.460 ,6,0,1.,12.0,0.,12.0,0.,12.0,0.,12.0
1979-07-18 00:40:53.460 ,7,0,0.,12.0,0.,12.0,0.,12.0,0.,12.0
1979-07-18 00:41:05.460 ,7,0,0.,12.0,0.,12.0,0.,12.0,0.,12.0
1979-07-18 00:41:17.460 ,7,0,0.,12.0,0.,12.0,0.,12.0,0.,12.0
1979-07-18 00:41:29.460 ,7,0,0.,12.0,0.,12.0,0.,12.0,0.,12.0
1979-07-18 00:41:41.460 ,7,0,0.,12.0,0.,12.0,0.,12.0,0.,12.0
1979-07-18 00:41:53.460 ,7,0,0.,12.0,0.,12.0,0.,12.0,0.,12.0
1979-07-18 00:42:05.460 ,7,0,0.,12.0,0.,12.0,0.,12.0,0.,12.0
1979-07-18 00:42:17.460 ,7,0,0.,12.0,0.,12.0,0.,12.0,0.,12.0
1979-07-18 00:42:29.460 ,6,0,0.,12.0,0.,12.0,0.,12.0,0.,12.0
1979-07-18 00:42:41.460 ,6,0,0.,12.0,0.,12.0,0.,12.0,0.,12.0
1979-07-18 00:42:53.460 ,6,0,0.,12.0,0.,12.0,0.,12.0,0.,12.0
1979-07-18 00:43:05.460 ,6,0,0.,12.0,0.,12.0,0.,12.0,0.,12.0
1979-07-18 00:43:17.460 ,5,0,0.,12.0,0.,12.0,0.,12.0,0.,12.0
1979-07-18 00:43:29.460 ,5,0,0.,12.0,0.,12.0,0.,12.0,0.,12.0
1979-07-18 00:43:41.460 ,5,0,0.,12.0,0.,12.0,0.,12.0,0.,12.0
1979-07-18 00:43:53.460 ,5,0,0.,12.0,0.,12.0,0.,12.0,0.,12.0
1979-07-18 00:44:05.460 ,4,0,0.,12.0,0.,12.0,0.,12.0,0.,12.0
1979-07-18 00:44:17.460 ,4,0,0.,12.0,0.,12.0,0.,12.0,0.,12.0
1979-07-18 00:44:29.460 ,4,0,0.,12.0,0.,12.0,0.,12.0,0.,12.0
1979-07-18 00:44:41.460 ,4,0,0.,12.0,0.,12.0,0.,12.0,0.,12.0
1979-07-18 00:44:53.460 ,3,0,0.,12.0,0.,12.0,0.,12.0,0.,12.0
1979-07-18 00:45:05.460 ,3,0,0.,12.0,0.,12.0,0.,12.0,0.,12.0
1979-07-18 00:45:17.460 ,3,0,0.,12.0,0.,12.0,0.,12.0,0.,12.0
1979-07-18 00:45:29.460 ,3,0,1.,12.0,0.,12.0,0.,12.0,0.,12.0
1979-07-18 00:45:41.460 ,2,0,0.,12.0,0.,12.0,0.,12.0,0.,12.0
1979-07-18 00:45:53.460 ,2,0,0.,12.0,0.,12.0,0.,12.0,0.,12.0
1979-07-18 00:46:05.460 ,2,0,0.,12.0,0.,12.0,0.,12.0,0.,12.0
1979-07-18 00:46:17.460 ,2,0,0.,12.0,0.,12.0,0.,12.0,0.,12.0
1979-07-18 00:46:29.460 ,1,0,0.,12.0,0.,12.0,0.,12.0,0.,12.0
1979-07-18 00:46:41.460 ,1,0,0.,12.0,0.,12.0,0.,12.0,0.,12.0
1979-07-18 00:46:53.460 ,1,0,0.,12.0,0.,12.0,0.,12.0,0.,12.0
1979-07-18 00:47:05.460 ,1,0,0.,12.0,0.,12.0,0.,12.0,0.,12.0
1979-07-18 00:47:17.460 ,0,0,0.,12.0,0.,12.0,0.,12.0,0.,12.0
1979-07-18 00:47:29.460 ,0,0,0.,12.0,0.,12.0,0.,12.0,0.,12.0
1979-07-18 00:47:41.460 ,0,0,0.,12.0,0.,12.0,0.,12.0,0.,12.0
1979-07-18 00:47:53.460 ,0,0,0.,12.0,0.,12.0,0.,12.0,0.,12.0
1979-07-18 00:48:05.460 ,0,0,0.,12.0,0.,12.0,0.,12.0,0.,12.0
1979-07-18 00:48:17.460 ,0,0,0.,12.0,0.,12.0,0.,12.0,0.,12.0
1979-07-18 00:48:29.460 ,0,0,0.,12.0,0.,12.0,0.,12.0,0.,12.0
1979-07-18 00:48:41.460 ,0,0,0.,12.0,0.,12.0,0.,12.0,0.,12.0
1979-07-18 00:48:53.460 ,1,0,0.,12.0,0.,12.0,0.,12.0,0.,12.0
1979-07-18 00:49:05.460 ,1,0,0.,12.0,0.,12.0,0.,12.0,0.,12.0
1979-07-18 00:49:17.460 ,1,0,0.,12.0,0.,12.0,0.,12.0,0.,12.0
1979-07-18 00:49:29.460 ,1,0,0.,12.0,0.,12.0,0.,12.0,0.,12.0
1979-07-18 00:49:41.460 ,2,0,0.,12.0,0.,12.0,0.,12.0,0.,12.0
1979-07-18 00:49:53.460 ,2,0,0.,12.0,0.,12.0,0.,12.0,0.,12.0
1979-07-18 00:50:05.460 ,2,0,0.,12.0,0.,12.0,0.,12.0,0.,12.0
1979-07-18 00:50:17.460 ,2,0,0.,12.0,0.,12.0,0.,12.0,0.,12.0
1979-07-18 00:50:29.460 ,3,0,0.,12.0,0.,12.0,0.,12.0,0.,12.0
1979-07-18 00:50:41.460 ,3,0,0.,12.0,0.,12.0,0.,12.0,0.,12.0
1979-07-18 00:50:53.460 ,3,0,0.,12.0,0.,12.0,0.,12.0,0.,12.0
1979-07-18 00:51:05.460 ,3,0,0.,12.0,0.,12.0,0.,12.0,0.,12.0
1979-07-18 00:51:17.460 ,4,0,0.,12.0,0.,12.0,0.,12.0,0.,12.0
1979-07-18 00:51:29.460 ,4,0,0.,12.0,0.,12.0,0.,12.0,0.,12.0
1979-07-18 00:51:41.460 ,4,0,0.,12.0,0.,12.0,0.,12.0,0.,12.0
1979-07-18 00:51:53.460 ,4,0,0.,12.0,0.,12.0,0.,12.0,0.,12.0
1979-07-18 00:52:05.460 ,5,0,0.,12.0,0.,12.0,0.,12.0,0.,12.0
1979-07-18 00:52:17.460 ,5,0,0.,12.0,0.,12.0,0.,12.0,0.,12.0
1979-07-18 00:52:29.460 ,5,0,0.,12.0,0.,12.0,0.,12.0,0.,12.0
1979-07-18 00:52:41.460 ,5,0,0.,12.0,0.,12.0,0.,12.0,0.,12.0
1979-07-18 00:52:53.460 ,6,0,0.,12.0,0.,12.0,0.,12.0,0.,12.0
1979-07-18 00:53:05.460 ,6,0,0.,12.0,0.,12.0,0.,12.0,0.,12.0
1979-07-18 00:53:17.460 ,6,0,0.,12.0,0.,12.0,0.,12.0,0.,12.0
1979-07-18 00:53:29.460 ,6,0,0.,12.0,0.,12.0,0.,12.0,0.,12.0
1979-07-18 00:53:41.460 ,7,0,0.,12.0,0.,12.0,0.,12.0,0.,12.0
1979-07-18 00:53:53.460 ,7,0,0.,12.0,0.,12.0,0.,12.0,0.,12.0
1979-07-18 00:54:05.460 ,7,0,0.,12.0,0.,12.0,0.,12.0,0.,12.0
1979-07-18 00:54:17.460 ,7,0,0.,12.0,0.,12.0,0.,12.0,0.,12.0
1979-07-18 00:54:29.460 ,7,0,0.,12.0,0.,12.0,0.,12.0,0.,12.0
1979-07-18 00:54:41.460 ,7,0,0.,12.0,0.,12.0,0.,12.0,0.,12.0
1979-07-18 00:54:53.460 ,7,0,0.,12.0,0.,12.0,0.,12.0,0.,12.0
1979-07-18 00:55:05.460 ,7,0,0.,12.0,0.,12.0,0.,12.0,0.,12.0
1979-07-18 00:55:17.460 ,6,0,0.,12.0,0.,12.0,0.,12.0,0.,12.0
1979-07-18 00:55:29.460 ,6,0,0.,12.0,0.,12.0,0.,12.0,0.,12.0
1979-07-18 00:55:41.460 ,6,0,1.,12.0,0.,12.0,0.,12.0,0.,12.0
1979-07-18 00:55:53.460 ,6,0,0.,12.0,0.,12.0,0.,12.0,0.,12.0
1979-07-18 00:56:05.460 ,5,0,0.,12.0,0.,12.0,0.,12.0,0.,12.0
1979-07-18 00:56:17.460 ,5,0,0.,12.0,0.,12.0,0.,12.0,0.,12.0
1979-07-18 00:56:29.460 ,5,0,0.,12.0,0.,12.0,0.,12.0,0.,12.0
1979-07-18 00:56:41.460 ,5,0,0.,12.0,0.,12.0,0.,12.0,0.,12.0
1979-07-18 00:56:53.460 ,4,0,0.,12.0,0.,12.0,0.,12.0,0.,12.0
1979-07-18 00:57:05.460 ,4,0,0.,12.0,0.,12.0,0.,12.0,0.,12.0
1979-07-18 00:57:17.460 ,0,0,0.,12.0,0.,12.0,0.,12.0,0.,12.0
1979-07-18 00:57:29.460 ,0,0,0.,12.0,0.,12.0,0.,12.0,0.,12.0
1979-07-18 00:57:42.060 ,3,0,0.,12.0,0.,12.0,0.,12.0,0.,12.0
1979-07-18 00:57:54.060 ,3,0,0.,12.0,0.,12.0,0.,12.0,0.,12.0
1979-07-18 00:58:05.460 ,3,0,0.,12.0,0.,12.0,0.,12.0,0.,12.0
1979-07-18 00:58:17.460 ,3,0,0.,12.0,0.,12.0,0.,12.0,0.,12.0
1979-07-18 00:58:29.460 ,2,0,0.,12.0,0.,12.0,0.,12.0,0.,12.0
1979-07-18 00:58:41.460 ,2,0,0.,12.0,0.,12.0,0.,12.0,0.,12.0
1979-07-18 00:58:53.460 ,2,0,0.,12.0,0.,12.0,0.,12.0,0.,12.0
1979-07-18 00:59:05.460 ,2,0,0.,12.0,0.,12.0,0.,12.0,0.,12.0
1979-07-18 00:59:17.460 ,1,0,0.,12.0,0.,12.0,0.,12.0,0.,12.0
1979-07-18 00:59:29.460 ,1,0,0.,12.0,0.,12.0,0.,12.0,0.,12.0
1979-07-18 00:59:41.460 ,1,0,0.,12.0,0.,12.0,0.,12.0,0.,12.0
1979-07-18 00:59:53.460 ,1,0,0.,12.0,0.,12.0,0.,12.0,0.,12.0
1979-07-18 01:00:05.460 ,0,0,0.,12.0,0.,12.0,0.,12.0,0.,12.0
1979-07-18 01:00:17.460 ,0,0,0.,12.0,0.,12.0,0.,12.0,0.,12.0
1979-07-18 01:00:29.460 ,0,0,0.,12.0,0.,12.0,0.,12.0,0.,12.0
1979-07-18 01:00:41.460 ,0,0,0.,12.0,0.,12.0,0.,12.0,0.,12.0
1979-07-18 01:00:53.460 ,0,0,0.,12.0,0.,12.0,0.,12.0,0.,12.0
1979-07-18 01:01:05.460 ,0,0,0.,12.0,0.,12.0,0.,12.0,0.,12.0
1979-07-18 01:01:17.460 ,0,0,0.,12.0,0.,12.0,0.,12.0,0.,12.0
1979-07-18 01:01:29.460 ,0,0,0.,12.0,0.,12.0,0.,12.0,0.,12.0
1979-07-18 01:01:41.460 ,1,0,0.,12.0,0.,12.0,0.,12.0,0.,12.0
1979-07-18 01:01:53.460 ,1,0,0.,12.0,0.,12.0,0.,12.0,0.,12.0
1979-07-18 01:02:05.460 ,1,0,0.,12.0,0.,12.0,0.,12.0,0.,12.0
1979-07-18 01:02:17.460 ,1,0,0.,12.0,0.,12.0,0.,12.0,0.,12.0
1979-07-18 01:02:29.460 ,2,0,0.,12.0,0.,12.0,0.,12.0,0.,12.0
1979-07-18 01:02:41.460 ,2,0,0.,12.0,0.,12.0,0.,12.0,0.,12.0
1979-07-18 01:02:53.460 ,2,0,0.,12.0,0.,12.0,0.,12.0,0.,12.0
1979-07-18 01:03:05.460 ,2,0,0.,12.0,0.,12.0,0.,12.0,0.,12.0
1979-07-18 01:03:17.460 ,3,0,0.,12.0,0.,12.0,0.,12.0,0.,12.0
1979-07-18 01:03:29.460 ,3,0,0.,12.0,0.,12.0,0.,12.0,0.,12.0
1979-07-18 01:03:41.460 ,3,0,0.,12.0,0.,12.0,0.,12.0,0.,12.0
1979-07-18 01:03:53.460 ,3,0,0.,12.0,0.,12.0,0.,12.0,0.,12.0
1979-07-18 01:04:05.460 ,4,0,0.,12.0,0.,12.0,0.,12.0,0.,12.0
1979-07-18 01:04:17.460 ,4,0,0.,12.0,0.,12.0,0.,12.0,0.,12.0
1979-07-18 01:04:29.460 ,4,0,0.,12.0,0.,12.0,0.,12.0,0.,12.0
1979-07-18 01:04:41.460 ,4,0,0.,12.0,0.,12.0,0.,12.0,0.,12.0
1979-07-18 01:04:53.460 ,5,0,0.,12.0,0.,12.0,0.,12.0,0.,12.0
1979-07-18 01:05:05.460 ,5,0,0.,12.0,0.,12.0,0.,12.0,0.,12.0
1979-07-18 01:05:17.460 ,5,0,0.,12.0,0.,12.0,0.,12.0,0.,12.0
1979-07-18 01:05:29.460 ,5,0,0.,12.0,0.,12.0,0.,12.0,0.,12.0
1979-07-18 01:05:41.460 ,6,0,0.,12.0,0.,12.0,0.,12.0,0.,12.0
1979-07-18 01:05:53.460 ,6,0,0.,12.0,0.,12.0,0.,12.0,0.,12.0
1979-07-18 01:06:05.460 ,6,0,0.,12.0,0.,12.0,0.,12.0,0.,12.0
1979-07-18 01:06:17.460 ,6,0,0.,12.0,0.,12.0,0.,12.0,0.,12.0
1979-07-18 01:06:29.460 ,7,0,0.,12.0,0.,12.0,0.,12.0,0.,12.0
1979-07-18 01:06:41.460 ,7,0,0.,12.0,0.,12.0,0.,12.0,0.,12.0
1979-07-18 01:06:53.460 ,7,0,0.,12.0,0.,12.0,0.,12.0,0.,12.0
1979-07-18 01:07:05.460 ,7,0,0.,12.0,0.,12.0,0.,12.0,0.,12.0
1979-07-18 01:07:17.460 ,3,1,0.,12.0,0.,12.0,0.,12.0,0.,12.0
1979-07-18 01:07:29.460 ,3,1,0.,12.0,0.,12.0,0.,12.0,0.,12.0
1979-07-18 01:07:41.460 ,0,1,0.,12.0,0.,12.0,0.,12.0,0.,12.0
1979-07-18 01:07:53.460 ,0,1,0.,12.0,0.,12.0,0.,12.0,0.,12.0
1979-07-18 01:08:05.460 ,4,1,0.,12.0,0.,12.0,0.,12.0,0.,12.0
1979-07-18 01:08:17.460 ,4,1,0.,12.0,0.,12.0,0.,12.0,0.,12.0
1979-07-18 01:08:29.460 ,7,1,0.,12.0,0.,12.0,0.,12.0,0.,12.0
1979-07-18 01:08:41.460 ,7,1,0.,12.0,0.,12.0,0.,12.0,0.,12.0
1979-07-18 01:08:53.460 ,3,1,0.,12.0,0.,12.0,0.,12.0,0.,12.0
1979-07-18 01:09:05.460 ,3,1,0.,12.0,0.,12.0,0.,12.0,0.,12.0
1979-07-18 01:09:17.460 ,0,1,0.,12.0,0.,12.0,0.,12.0,0.,12.0
1979-07-18 01:09:29.460 ,0,1,0.,12.0,0.,12.0,0.,12.0,0.,12.0
1979-07-18 01:09:41.460 ,4,1,0.,12.0,0.,12.0,0.,12.0,0.,12.0
1979-07-18 01:09:53.460 ,4,1,0.,12.0,0.,12.0,0.,12.0,0.,12.0
1979-07-18 01:10:05.460 ,7,1,0.,12.0,0.,12.0,0.,12.0,0.,12.0
1979-07-18 01:10:17.460 ,7,1,0.,12.0,0.,12.0,0.,12.0,0.,12.0
1979-07-18 01:10:29.460 ,3,1,0.,12.0,0.,12.0,0.,12.0,0.,12.0
1979-07-18 01:10:41.460 ,3,1,0.,12.0,0.,12.0,0.,12.0,0.,12.0
1979-07-18 01:10:53.460 ,0,1,0.,12.0,0.,12.0,0.,12.0,0.,12.0
1979-07-18 01:11:05.460 ,0,1,0.,12.0,0.,12.0,0.,12.0,0.,12.0
1979-07-18 01:11:17.460 ,4,1,0.,12.0,0.,12.0,0.,12.0,0.,12.0
1979-07-18 01:11:29.460 ,4,1,0.,12.0,0.,12.0,0.,12.0,0.,12.0
1979-07-18 01:11:41.460 ,7,1,0.,12.0,0.,12.0,0.,12.0,0.,12.0
1979-07-18 01:11:53.460 ,7,1,0.,12.0,0.,12.0,0.,12.0,0.,12.0
1979-07-18 01:12:05.460 ,3,1,0.,12.0,0.,12.0,0.,12.0,0.,12.0
1979-07-18 01:12:17.460 ,3,1,0.,12.0,0.,12.0,0.,12.0,0.,12.0
1979-07-18 01:12:29.460 ,0,1,0.,12.0,0.,12.0,0.,12.0,0.,12.0
1979-07-18 01:12:41.460 ,0,1,0.,12.0,0.,12.0,0.,12.0,0.,12.0
1979-07-18 01:12:53.460 ,4,1,1.,12.0,0.,12.0,0.,12.0,0.,12.0
1979-07-18 01:13:05.460 ,4,1,0.,12.0,0.,12.0,0.,12.0,0.,12.0
1979-07-18 01:13:17.460 ,7,1,0.,12.0,0.,12.0,0.,12.0,0.,12.0
1979-07-18 01:13:29.460 ,7,1,0.,12.0,0.,12.0,0.,12.0,0.,12.0
1979-07-18 01:13:41.460 ,3,1,0.,12.0,0.,12.0,0.,12.0,0.,12.0
1979-07-18 01:13:53.460 ,3,1,0.,12.0,0.,12.0,0.,12.0,0.,12.0
1979-07-18 01:14:05.460 ,0,1,0.,12.0,0.,12.0,0.,12.0,0.,12.0
1979-07-18 01:14:17.460 ,0,1,0.,12.0,0.,12.0,0.,12.0,0.,12.0
1979-07-18 01:14:29.460 ,4,1,0.,12.0,0.,12.0,0.,12.0,0.,12.0
1979-07-18 01:14:41.460 ,4,1,0.,12.0,0.,12.0,0.,12.0,0.,12.0
1979-07-18 01:14:53.460 ,7,1,0.,12.0,0.,12.0,0.,12.0,0.,12.0
1979-07-18 01:15:05.460 ,7,1,0.,12.0,0.,12.0,0.,12.0,0.,12.0
1979-07-18 01:15:17.460 ,3,1,0.,12.0,0.,12.0,0.,12.0,0.,12.0
1979-07-18 01:15:29.460 ,3,1,0.,12.0,0.,12.0,0.,12.0,0.,12.0
1979-07-18 01:15:41.460 ,0,1,0.,12.0,0.,12.0,0.,12.0,0.,12.0
1979-07-18 01:15:53.460 ,0,1,0.,12.0,0.,12.0,0.,12.0,0.,12.0
1979-07-18 01:16:05.460 ,4,1,0.,12.0,0.,12.0,0.,12.0,0.,12.0
1979-07-18 01:16:17.460 ,4,1,0.,12.0,0.,12.0,0.,12.0,0.,12.0
1979-07-18 01:16:29.460 ,7,1,0.,12.0,0.,12.0,0.,12.0,0.,12.0
1979-07-18 01:16:41.460 ,7,1,0.,12.0,0.,12.0,0.,12.0,0.,12.0
1979-07-18 01:16:53.460 ,3,1,0.,12.0,0.,12.0,0.,12.0,0.,12.0
1979-07-18 01:17:05.460 ,3,1,0.,12.0,0.,12.0,0.,12.0,0.,12.0
1979-07-18 01:17:17.460 ,0,1,0.,12.0,0.,12.0,0.,12.0,0.,12.0